Location: Curupao
(10.4996°N, 66.6442°W)
Time: 01:12:49
(UTC+00:00)

ACS3 Solar Sail - Visible Passes

Search period start: 18 July 2024 00:00
Search period end: 28 July 2024 00:00
Orbit: 993 x 1023 km, 97.4° (Epoch: 17 July)

Date Brightness Start Highest point End Pass type
(mag) Time Alt. Az. Time Alt. Az. Time Alt. Az.
18 Jul 6.6 01:13:49 18° NNE 01:13:49 18° NNE 01:15:39 10° NNE visible
18 Jul 7.6 02:59:09 10° NW 02:59:09 10° NW 02:59:16 10° NW visible
19 Jul 6.6 01:48:38 24° N 01:48:38 24° N 01:50:52 10° N visible
20 Jul 7.0 02:23:28 19° NNW 02:23:28 19° NNW 02:25:08 10° NNW visible
21 Jul 6.6 01:12:56 19° NNE 01:12:56 19° NNE 01:14:52 10° NNE visible
21 Jul 7.6 02:58:17 10° NW 02:58:17 10° NW 02:58:19 10° NW visible
22 Jul 6.6 01:47:46 24° N 01:47:46 24° N 01:50:01 10° N visible
23 Jul 7.0 02:22:36 19° NNW 02:22:36 19° NNW 02:24:14 10° NNW visible
24 Jul 6.6 01:12:05 19° NNE 01:12:05 19° NNE 01:14:03 10° NNE visible
25 Jul 6.6 01:46:55 24° N 01:46:55 24° N 01:49:10 10° N visible
26 Jul 6.9 00:36:24 10° NE 00:36:24 10° NE 00:36:31 10° NE visible
26 Jul 7.1 02:21:45 18° NNW 02:21:45 18° NNW 02:23:20 10° NNW visible
27 Jul 6.6 01:11:14 19° NNE 01:11:14 19° NNE 01:13:15 10° NNE visible
